Regional Weather Roundup
Issued by NWS Cleveland, OH

Home | Current Version | Previous Version | Graphics & Text | Print | Product List | Glossary On
Versions: 1 2 3 4 5 6 7 8 9 10 11 12 13 14 15 16 17 18 19 20 21 22 23 24 25 26 27 28 29 30 31 32 33 34 35 36 37 38 39 40 41 42 43 44 45 46 47 48 49 50
000
ASUS41 KCLE 281610
RWRCLE
OHIO REGIONAL WEATHER ROUNDUP
NATIONAL WEATHER SERVICE WILMINGTON, OH
1200 PM EDT TUE JUL 28 2015

NOTE: "FAIR" INDICATES FEW OR NO CLOUDS BELOW 12,000 FEET WITH NO
SIGNIFICANT WEATHER AND/OR OBSTRUCTIONS TO VISIBILITY.

OHZ001>008-015>018-024>027-034-035-043-044-281700-
   NORTHWEST OHIO

CITY           SKY/WX    TMP DP  RH WIND       PRES   REMARKS
DEFIANCE       SUNNY     85  65  51 SE7       30.03R
FINDLAY        SUNNY     85  65  51 VRB5      30.01F
TOLEDO EXPRESS SUNNY     85  65  51 SE5       30.03R
TOLEDO EXEC    SUNNY     86  65  49 VRB5      30.04R
LIMA           SUNNY     86  64  47 SE8       30.03R
$$

OHZ009>014-019>023-028>033-038-089-281700-
   NORTHEAST OHIO

CITY           SKY/WX    TMP DP  RH WIND       PRES   REMARKS
CLE-HOPKINS    MOSUNNY   89  62  40 E10       30.04S
CLE-LAKEFRONT  MOSUNNY   82  69  64 N9        30.02S
CUY CO. ARPT   MOSUNNY   88  64  45 E6        30.04F
LORAIN-ELYRIA  SUNNY     86  62  44 E5        30.04S
ASHTABULA      MOSUNNY   86  63  45 E5        30.05F
AKRON-CANTON   MOSUNNY   86  64  47 E8        30.04F
WOOSTER        SUNNY     85  66  53 E7        30.04F
MANSFIELD      MOSUNNY   86  62  44 SE9       30.05F
YOUNGSTOWN     MOSUNNY   84  61  45 VRB3      30.05F
$$

OHZ042-051>053-060>062-070>072-077>081-281700-
  SOUTHWEST OHIO

CITY           SKY/WX    TMP DP  RH WIND       PRES   REMARKS
CINC-COVINGTON PTSUNNY   86  72  62 CALM      30.01S HX  92
CINC-LUNKEN    SUNNY     86  75  69 CALM      29.99F HX  95
HAMILTON       PTSUNNY   86  73  65 CALM      30.01S HX  93
DAYTON         MOSUNNY   85  70  60 SE6       30.03S
WRIGHT-PAT AFB MOSUNNY   83  72  69 VRB1      30.01S
DAYTON GENERAL MOSUNNY   84  72  67 VRB6      30.01S
WILMINGTON     MOSUNNY   82  72  71 CALM      30.02S
$$

OHZ036-037-039>041-045>050-054>059-063>069-073>076-082>088-281700-
  CENTRAL AND SOUTHEAST OHIO

CITY           SKY/WX    TMP DP  RH WIND       PRES   REMARKS
COLUMBUS       MOSUNNY   87  65  47 SE7       30.00F
OSU AIRPORT    SUNNY     85  66  53 E7        30.01F
BOLTON FIELD   SUNNY     84  72  65 CALM      30.02S
RICKENBACK AFB SUNNY     82  71  68 CALM      30.00F
NEWARK         SUNNY     85  68  56 SE3       30.01F
MARION         MOSUNNY   86  64  47 VRB6      30.03S
LANCASTER      SUNNY     86  69  56 CALM      30.01F HX  90
ZANESVILLE     SUNNY     84  69  60 E6        30.01F
NEW PHILLY     SUNNY     85  71  63 VRB5      30.03S HX  90
$$



USA.gov is the U.S. government's official web portal to all federal, state and local government web resources and services.